When you browse on this site, cookies collect data to enhance your experience and personalize the content and advertising you see.
Visit our Privacy Policy to learn more. By continuing to use the site, you agree to this use of cookies and data.
  • en Suisse
  • Liste des pays
  • À 7 jours
  • Température de l'eau
  • Carte météo
  • Widgets météo
  • user-avatar
    Se connecter

    Météo par heure à Melbourne

    Ce jour, 30 Mai, Samedi

    Heure Température Précipitation Vent Pression Humidité
    00:00 +10°C° 0 mm 5 m/s 767 mmHg 77%
    01:00 +10°C° 0 mm 5 m/s 767 mmHg 77%
    02:00 +9°C° 0 mm 5 m/s 767 mmHg 77%
    03:00 +9°C° 0 mm 5 m/s 767 mmHg 77%
    04:00 +9°C° 0 mm 6 m/s 766 mmHg 77%
    05:00 +9°C° 0 mm 6 m/s 766 mmHg 77%
    06:00 +9°C° 0 mm 6 m/s 766 mmHg 77%
    07:00 +9°C° 0 mm 5 m/s 766 mmHg 77%
    08:00 +10°C° 0 mm 6 m/s 766 mmHg 72%
    09:00 +11°C° 0 mm 6 m/s 765 mmHg 67%
    10:00 +12°C° 0 mm 7 m/s 766 mmHg 61%
    11:00 +14°C° 0 mm 7 m/s 764 mmHg 58%
    12:00 +15°C° 0 mm 7 m/s 763 mmHg 54%
    13:00 +16°C° 0 mm 7 m/s 762 mmHg 50%
    14:00 +16°C° 0 mm 7 m/s 761 mmHg 52%
    15:00 +16°C° 0 mm 7 m/s 760 mmHg 53%
    16:00 +15°C° 0 mm 7 m/s 759 mmHg 55%
    17:00 +15°C° 0 mm 7 m/s 759 mmHg 57%
    18:00 +15°C° 0 mm 8 m/s 759 mmHg 58%
    19:00 +13°C° 0 mm 8 m/s 758 mmHg 60%
    20:00 +15°C° 0 mm 7 m/s 758 mmHg 59%
    21:00 +15°C° 0 mm 7 m/s 758 mmHg 59%
    22:00 +15°C° 0 mm 7 m/s 758 mmHg 58%
    23:00 +14°C° 0 mm 7 m/s 758 mmHg 58%

    Demain, 31 Mai, Dimanche

    Heure Température Précipitation Vent Pression Humidité
    00:00 +14°C° 0 mm 7 m/s 757 mmHg 57%
    01:00 +14°C° 0 mm 7 m/s 757 mmHg 57%
    02:00 +14°C° 0 mm 6 m/s 757 mmHg 58%
    03:00 +14°C° 0 mm 6 m/s 757 mmHg 60%
    04:00 +14°C° 0 mm 6 m/s 757 mmHg 62%
    05:00 +13°C° 0 mm 5 m/s 757 mmHg 63%
    06:00 +13°C° 0 mm 5 m/s 757 mmHg 65%
    07:00 +12°C° 0 mm 5 m/s 757 mmHg 66%
    08:00 +13°C° 0 mm 5 m/s 757 mmHg 66%
    09:00 +13°C° 0 mm 5 m/s 758 mmHg 66%
    10:00 +14°C° 0 mm 4 m/s 758 mmHg 66%
    11:00 +15°C° 0.1 mm 5 m/s 757 mmHg 62%
    12:00 +15°C° 0.1 mm 5 m/s 757 mmHg 58%
    13:00 +16°C° 0.1 mm 5 m/s 757 mmHg 54%
    14:00 +17°C° 0.1 mm 4 m/s 756 mmHg 56%
    15:00 +15°C° 0.1 mm 4 m/s 756 mmHg 57%
    16:00 +15°C° 0.1 mm 4 m/s 755 mmHg 59%
    17:00 +14°C° 0.1 mm 4 m/s 755 mmHg 61%
    18:00 +14°C° 0.1 mm 4 m/s 755 mmHg 62%
    19:00 +13°C° 0.1 mm 4 m/s 755 mmHg 64%
    20:00 +13°C° 0 mm 4 m/s 755 mmHg 65%
    21:00 +12°C° 0 mm 4 m/s 754 mmHg 67%
    22:00 +12°C° 0 mm 4 m/s 754 mmHg 68%
    23:00 +12°C° 0 mm 5 m/s 753 mmHg 68%

    Après-demain, 1 Juin, Lundi

    Heure Température Précipitation Vent Pression Humidité
    00:00 +12°C° 0 mm 5 m/s 753 mmHg 69%
    01:00 +10°C° 0 mm 6 m/s 752 mmHg 69%
    02:00 +10°C° 0 mm 6 m/s 751 mmHg 69%
    03:00 +11°C° 0 mm 6 m/s 750 mmHg 68%
    04:00 +11°C° 0 mm 6 m/s 750 mmHg 68%
    05:00 +10°C° 0.5 mm 6 m/s 750 mmHg 73%
    06:00 +10°C° 0.5 mm 5 m/s 750 mmHg 79%
    07:00 +9°C° 0.5 mm 5 m/s 750 mmHg 84%
    08:00 +9°C° 1.1 mm 5 m/s 750 mmHg 82%
    09:00 +9°C° 1.1 mm 6 m/s 751 mmHg 80%
    10:00 +9°C° 1.1 mm 7 m/s 751 mmHg 78%
    11:00 +9°C° 0.3 mm 7 m/s 752 mmHg 77%
    12:00 +9°C° 0.3 mm 7 m/s 752 mmHg 77%
    13:00 +9°C° 0.3 mm 8 m/s 752 mmHg 76%
    14:00 +9°C° 0.3 mm 8 m/s 753 mmHg 78%
    15:00 +7°C° 0.3 mm 9 m/s 754 mmHg 79%
    16:00 +7°C° 0.3 mm 9 m/s 755 mmHg 81%
    17:00 +7°C° 0.3 mm 9 m/s 756 mmHg 80%
    18:00 +7°C° 0.3 mm 9 m/s 757 mmHg 79%
    19:00 +7°C° 0.3 mm 9 m/s 758 mmHg 78%
    20:00 +7°C° 0.1 mm 8 m/s 758 mmHg 76%
    21:00 +8°C° 0.1 mm 7 m/s 759 mmHg 75%
    22:00 +8°C° 0.1 mm 7 m/s 760 mmHg 73%
    23:00 +8°C° 0 mm 6 m/s 760 mmHg 74%

    2 Juin, Mardi

    Heure Température Précipitation Vent Pression Humidité
    00:00 +8°C° 0 mm 5 m/s 761 mmHg 74%
    01:00 +8°C° 0 mm 5 m/s 761 mmHg 74%
    02:00 +8°C° 0 mm 4 m/s 761 mmHg 76%
    03:00 +8°C° 0 mm 4 m/s 761 mmHg 77%
    04:00 +9°C° 0 mm 3 m/s 762 mmHg 79%
    05:00 +9°C° 0 mm 3 m/s 762 mmHg 80%
    06:00 +9°C° 0 mm 3 m/s 762 mmHg 80%
    07:00 +10°C° 0 mm 3 m/s 763 mmHg 81%
    08:00 +10°C° 0.1 mm 4 m/s 763 mmHg 82%
    09:00 +10°C° 0.1 mm 4 m/s 763 mmHg 83%
    10:00 +10°C° 0.1 mm 5 m/s 764 mmHg 84%
    11:00 +12°C° 0.1 mm 5 m/s 764 mmHg 80%
    12:00 +13°C° 0.1 mm 5 m/s 763 mmHg 76%
    13:00 +14°C° 0.1 mm 5 m/s 763 mmHg 71%
    14:00 +14°C° 0.1 mm 5 m/s 763 mmHg 71%
    15:00 +13°C° 0.1 mm 5 m/s 763 mmHg 72%
    16:00 +13°C° 0.1 mm 4 m/s 763 mmHg 72%
    17:00 +13°C° 0 mm 4 m/s 764 mmHg 74%
    18:00 +12°C° 0 mm 4 m/s 764 mmHg 77%
    19:00 +12°C° 0 mm 4 m/s 765 mmHg 79%
    20:00 +11°C° 0 mm 4 m/s 765 mmHg 80%
    21:00 +11°C° 0 mm 4 m/s 766 mmHg 81%
    22:00 +11°C° 0 mm 4 m/s 766 mmHg 81%
    23:00 +11°C° 0.1 mm 4 m/s 766 mmHg 83%

    3 Juin, Mercredi

    Heure Température Précipitation Vent Pression Humidité
    00:00 +11°C° 0.1 mm 4 m/s 767 mmHg 84%
    01:00 +11°C° 0.1 mm 4 m/s 767 mmHg 85%
    02:00 +11°C° 0.1 mm 4 m/s 767 mmHg 83%
    03:00 +11°C° 0.1 mm 4 m/s 767 mmHg 81%
    04:00 +11°C° 0.1 mm 4 m/s 768 mmHg 79%
    05:00 +10°C° 0 mm 4 m/s 768 mmHg 78%
    06:00 +10°C° 0 mm 4 m/s 769 mmHg 78%
    07:00 +10°C° 0 mm 4 m/s 770 mmHg 78%
    08:00 +10°C° 0 mm 4 m/s 770 mmHg 75%
    09:00 +11°C° 0 mm 4 m/s 771 mmHg 73%
    10:00 +11°C° 0 mm 4 m/s 771 mmHg 70%
    11:00 +11°C° 0 mm 4 m/s 771 mmHg 68%
    12:00 +12°C° 0 mm 4 m/s 771 mmHg 65%
    13:00 +12°C° 0 mm 4 m/s 771 mmHg 63%
    14:00 +12°C° 0 mm 4 m/s 771 mmHg 63%
    15:00 +12°C° 0 mm 4 m/s 771 mmHg 63%
    16:00 +12°C° 0 mm 4 m/s 771 mmHg 64%
    17:00 +11°C° 0 mm 3 m/s 771 mmHg 67%
    18:00 +10°C° 0 mm 3 m/s 772 mmHg 71%
    19:00 +9°C° 0 mm 3 m/s 772 mmHg 74%
    20:00 +9°C° 0 mm 3 m/s 773 mmHg 76%
    21:00 +9°C° 0 mm 2 m/s 773 mmHg 78%
    22:00 +8°C° 0 mm 2 m/s 773 mmHg 80%
    23:00 +8°C° 0 mm 2 m/s 773 mmHg 79%

    4 Juin, Jeudi

    Heure Température Précipitation Vent Pression Humidité
    00:00 +9°C° 0 mm 1 m/s 773 mmHg 79%
    01:00 +9°C° 0 mm 1 m/s 773 mmHg 78%
    02:00 +9°C° 0 mm 1 m/s 773 mmHg 80%
    03:00 +8°C° 0 mm 1 m/s 773 mmHg 82%
    04:00 +8°C° 0 mm 1 m/s 773 mmHg 83%
    05:00 +8°C° 0 mm 1 m/s 773 mmHg 84%
    06:00 +7°C° 0 mm 1 m/s 773 mmHg 85%
    07:00 +7°C° 0 mm 1 m/s 773 mmHg 86%
    08:00 +8°C° 0 mm 1 m/s 773 mmHg 80%
    09:00 +10°C° 0 mm 1 m/s 773 mmHg 75%
    10:00 +11°C° 0 mm 1 m/s 774 mmHg 70%
    11:00 +12°C° 0 mm 1 m/s 773 mmHg 65%
    12:00 +13°C° 0 mm 1 m/s 772 mmHg 60%
    13:00 +14°C° 0 mm 1 m/s 772 mmHg 56%
    14:00 +14°C° 0 mm 1 m/s 772 mmHg 58%
    15:00 +14°C° 0 mm 1 m/s 771 mmHg 59%
    16:00 +14°C° 0 mm 1 m/s 771 mmHg 61%
    17:00 +12°C° 0 mm 1 m/s 771 mmHg 67%
    18:00 +10°C° 0 mm 0 m/s 772 mmHg 73%
    19:00 +9°C° 0 mm 0 m/s 772 mmHg 79%
    20:00 +9°C° 0 mm 1 m/s 772 mmHg 80%
    21:00 +9°C° 0 mm 1 m/s 772 mmHg 81%
    22:00 +9°C° 0 mm 1 m/s 772 mmHg 82%
    23:00 +8°C° 0 mm 1 m/s 772 mmHg 82%
    Voir plus